Vertical_Velocity
4 2 5 2 1 -4 3 5 2 -4 -4 -1 4 -4 -7 -5 -7 -4 -3 -3 -3 -3
-4 -3 -1 3 8 8 0 2 -5 2 -6 -6 -10 -17 3 1 2 0 -0 -1 -1 1
8 7 4 6 1 5 6 0 -2 -6 2 -2 -6 -2 -3 -5 -1 -1 -1 -1 -2 -1
4 3 7 8 5 2 4 1 1 3 5 -2 1 2 -1 -4 0 1 1 1 -1 -3
6 10 4 -4 -5 4 1 5 10 11 -1 1 3 4 -7 -1 3 2 -1 -1 -4 -3
-2 -4 -6 1 1 5 9 12 11 -2 -2 -1 1 -4 -2 3 2 0 -0 2 -0 -2
1 5 3 4 6 7 6 -3 -12 -3 1 3 -0 -11 2 2 -1 -1 -2 0 1 0
9 7 4 7 8 7 -1 -2 17 6 8 4 -14 -1 2 3 0 1 3 4 -3 0
4 5 8 9 16 15 13 21 9 15 12 -14 -5 -3 0 2 1 3 0 1 4 -0
6 7 5 3 -1 -4 0 -8 3 3 -17 -3 1 -5 2 3 -2 -2 -2 0 4 -0
5 2 4 4 9 17 39 19 -3 -13 -2 -5 -5 -1 2 2 -2 -1 -1 2 3 2
2 3 5 6 2 5 -2 -20 -10 1 -2 -3 -5 5 0 0 1 1 -0 2 3 1
2 5 4 0 -11 -11 -5 -1 2 2 -3 0 -2 3 -1 2 1 -2 -1 1 2 -1
1 0 0 -3 1 2 4 2 -0 -2 2 0 1 1 -0 2 0 0 1 0 2 1
Height
1528 1531 1532 1533 1534 1537 1539 1540 1540 1541 1541 1544 1544 1542 1543 1543 1542 1541 1541 1543 1542 1541
1522 1525 1526 1528 1531 1531 1534 1535 1536 1536 1537 1538 1540 1538 1539 1539 1538 1538 1538 1538 1537 1537
1516 1518 1520 1521 1523 1526 1528 1530 1531 1534 1534 1534 1535 1536 1536 1535 1535 1535 1535 1534 1533 1532
1511 1512 1513 1515 1518 1521 1523 1525 1527 1528 1529 1529 1531 1531 1530 1531 1530 1530 1530 1530 1528 1528
1506 1507 1509 1512 1516 1518 1520 1522 1524 1523 1524 1526 1527 1526 1526 1525 1525 1525 1525 1525 1524 1523
1498 1501 1504 1507 1511 1513 1516 1517 1518 1519 1521 1523 1523 1524 1523 1522 1521 1521 1520 1520 1519 1519
1491 1494 1500 1504 1507 1509 1511 1512 1516 1518 1519 1519 1518 1517 1518 1517 1518 1517 1516 1515 1514 1513
1490 1494 1498 1500 1502 1504 1506 1510 1509 1509 1511 1512 1512 1512 1514 1513 1512 1511 1510 1509 1508 1507
1489 1491 1493 1496 1500 1504 1506 1507 1507 1509 1505 1506 1506 1508 1508 1506 1505 1504 1502 1501 1501 1501
1483 1485 1488 1492 1494 1497 1500 1502 1502 1502 1501 1503 1502 1502 1501 1499 1497 1496 1494 1493 1493 1493
1479 1483 1487 1490 1493 1496 1495 1491 1493 1499 1499 1497 1497 1496 1494 1492 1490 1487 1486 1486 1486 1486
1479 1482 1485 1487 1489 1490 1492 1492 1495 1494 1491 1490 1490 1489 1486 1484 1481 1479 1478 1479 1480 1480
1480 1482 1484 1487 1488 1491 1492 1492 1490 1488 1486 1486 1483 1482 1479 1476 1474 1472 1472 1472 1473 1473
1483 1485 1487 1488 1489 1488 1486 1485 1483 1482 1481 1479 1477 1475 1473 1470 1468 1466 1466 1466 1466 1466